Ketchikan, AK

2:14 PM AKDT on July 22, 2018 (GMT -0800)
Ketchikan International

Weather History for PAKT - July, 2018

Change the Weather History Date:

Tuesday, July 17, 2018

  Actual Average Record
Temperature  
Mean Temperature 58 °F -  
Max Temperature 60 °F 66 °F 80 °F (1958)
Min Temperature 55 °F 51 °F 42 °F (1968)
Degree Days  
Heating Degree Days 8    
Growing Degree Days 8 (Base 50)    
Moisture  
Dew Point 55 °F    
Average Humidity 92    
Maximum Humidity 100    
Minimum Humidity 86    
Precipitation  
Precipitation 0.07 in - - ()
Sea Level Pressure  
Sea Level Pressure 30.06 in    
Wind  
Wind Speed 9 mph (SE)    
Max Wind Speed 15 mph    
Max Gust Speed -    
Visibility 8 miles    
Events Rain    
Averages and records for this station are not official NWS values.
T = Trace of Precipitation, MM = Missing Value Source: NWS Daily Summary

Daily Weather History Graph

Daily Weather History Graph

Search for Another Location

Airport or City:

Astronomy

Jul. 17, 2018 Rise Set
Actual Time 4:29 AM AKDT 9:15 PM AKDT
Civil Twilight 3:36 AM AKDT 10:08 PM AKDT
Nautical Twilight 2:03 AM AKDT 11:38 PM AKDT
Astronomical Twilight Sun does not set Sun does not set
Moon 10:46 AM AKDT (7/17) 11:42 PM AKDT (7/17)
Length of Visible Light 18h 32m
Length of Day
16h 46m
Waxing Crescent, 29% of the Moon is Illuminated
Jul 17
Waxing Crescent
Jul 19
First Quarter
Jul 27
Full
Aug 4
Last Quarter
Aug 11
New

Hourly Weather History & Observations

Time (AKDT) Temp. Dew Point Humidity Pressure Visibility Wind Dir Wind Speed Gust Speed Precip Events Conditions
12:53 AM 55.9 °F 55.0 °F 97% 30.12 in 10.0 mi SE 8.1 mph - N/A   Overcast
1:53 AM 57.0 °F 55.0 °F 93% 30.12 in 10.0 mi SE 8.1 mph - N/A   Overcast
2:30 AM 57.0 °F 55.0 °F 93% 30.10 in 10.0 mi SE 11.5 mph - N/A   Overcast
2:53 AM 57.0 °F 55.0 °F 93% 30.10 in 10.0 mi SE 8.1 mph - 0.00 in Rain Light Rain
3:46 AM 57.0 °F 54.0 °F 89% 30.10 in 10.0 mi SE 8.1 mph - 0.01 in   Overcast
3:53 AM 57.0 °F 55.0 °F 93% 30.10 in 10.0 mi SE 9.2 mph - 0.01 in   Overcast
4:21 AM 55.9 °F 54.0 °F 93% 30.09 in 10.0 mi SE 8.1 mph - N/A   Overcast
4:53 AM 55.9 °F 54.0 °F 93% 30.09 in 10.0 mi SE 6.9 mph - 0.00 in   Overcast
5:10 AM 55.9 °F 54.0 °F 93% 30.08 in 10.0 mi SE 6.9 mph - N/A   Overcast
5:28 AM 55.9 °F 54.0 °F 93% 30.08 in 10.0 mi SE 6.9 mph - N/A   Overcast
5:35 AM 55.9 °F 54.0 °F 93% 30.07 in 10.0 mi SE 6.9 mph - N/A   Overcast
5:53 AM 55.9 °F 55.0 °F 97% 30.07 in 10.0 mi SE 6.9 mph - N/A   Overcast
6:00 AM 55.4 °F 53.6 °F 94% 30.07 in 10.0 mi SE 5.8 mph - N/A   Overcast
6:53 AM 55.4 °F 55.4 °F 100% 30.08 in 4.0 mi SE 8.1 mph - N/A   Overcast
7:53 AM 57.2 °F 55.4 °F 94% 30.07 in 3.0 mi ESE 10.4 mph - N/A Rain Light Rain
8:53 AM 57.2 °F 55.4 °F 94% 30.06 in 3.0 mi SE 12.7 mph - N/A Rain Light Rain
9:53 AM 57.2 °F 55.4 °F 94% 30.05 in 3.0 mi SE 8.1 mph - N/A Rain Light Rain
10:53 AM 57.2 °F 55.4 °F 94% 30.04 in 3.0 mi SE 6.9 mph - N/A Rain Light Rain
11:53 AM 57.2 °F 55.4 °F 94% 30.03 in 5.0 mi SE 11.5 mph - N/A Rain Light Rain
12:53 PM 57.2 °F 55.4 °F 94% 30.03 in 3.0 mi SE 9.2 mph - N/A Rain Light Rain
1:53 PM 59.0 °F 55.4 °F 88% 30.02 in 4.0 mi SE 11.5 mph - N/A Rain Light Rain
2:53 PM 59.0 °F 57.2 °F 94% 30.02 in 8.0 mi ESE 13.8 mph - N/A Rain Light Rain
3:53 PM 59.0 °F 57.0 °F 93% 30.01 in 10.0 mi SE 15.0 mph - 0.00 in   Overcast
4:53 PM 60.8 °F 57.2 °F 88% 30.01 in 10.0 mi ESE 11.5 mph - N/A   Overcast
5:53 PM 60.1 °F 55.9 °F 86% 30.01 in 10.0 mi ESE 11.5 mph - N/A   Overcast
6:53 PM 59.0 °F 55.0 °F 87% 30.01 in 10.0 mi ESE 9.2 mph - 0.00 in   Overcast
7:53 PM 57.9 °F 55.9 °F 93% 30.02 in 4.0 mi SE 5.8 mph - 0.04 in Rain Light Rain
8:53 PM 57.9 °F 55.9 °F 93% 30.04 in 5.0 mi NNW 8.1 mph - 0.02 in   Overcast
9:15 PM 57.0 °F 55.0 °F 93% 30.04 in 10.0 mi NNW 10.4 mph - N/A   Overcast
9:53 PM 57.0 °F 53.1 °F 87% 30.05 in 10.0 mi NW 6.9 mph - 0.00 in   Overcast
10:21 PM 57.0 °F 54.0 °F 89% 30.05 in 10.0 mi NNW 8.1 mph - N/A   Overcast
10:53 PM 57.0 °F 54.0 °F 89% 30.06 in 10.0 mi NNW 6.9 mph - N/A   Overcast
11:53 PM 57.0 °F 53.1 °F 87% 30.08 in 10.0 mi North 9.2 mph - N/A   Overcast